OneWeb SL0682

operational
NORAD ID: 56718 Int'l Des: 2023-068 Owner: ONEWEBN Country: UK Constellation: oneweb
LEOCIRCULARPOLARONEWEB_TYPE

About OneWeb SL0682

Description loading...

Live Position

Loading 3D Globe...

Upcoming Passes

Altitude History

Altitude vs Time

uPlot chart will show altitude changes over time

Two-Line Element Set

1 56718U 23068J 26074.63507297 .00034202 00000-0 90027-1 0 9994
2 56718 87.8940 277.8708 0001902 67.6919 292.4413 13.15888740137151
Epoch: Mar 15, 2026 • Age: 11 hours

Current Status

Altitude 1201.7 km
Velocity 7.25 km/s
Sub-Earth Point 15.70°N, 70.62°E
Launch Date May 20, 2023
Age 2.8 years
Type internet

Technical Details

Classification Payload
Mass 148.00 kg
Dry Mass 140.00 kg
Total Mass 148.00 kg
Length 1.30 m
Diameter 1.00 m
Span 5.00 m
Shape Trapezoid+2 pan
Manufacturer ONEWUS
Bus Type ARROW
Phase Status In Orbit
Owner/State ONEWEBN/UK

Large Constellations

Loading constellations...